Starlink 32930

operational
NORAD ID: 63203 Int'l Des: 2025-048 Owner: SPXS Country: US Constellation: starlink
LEOCIRCULAR

Über Starlink 32930

Beschreibung wird geladen...

Live-Position

3D-Globus wird geladen...

Nächste Überflüge

Höhenverlauf

Altitude vs Time

uPlot chart will show altitude changes over time

Zweizeiliger Elementsatz

1 63203U 25048W 25349.89410443 .00026403 00000-0 96420-3 0 9998
2 63203 42.9982 198.8101 0001922 278.9622 81.1012 15.27625769 44278
Epoch: 15. Dez. 2025 • Age: 23 hours

Aktueller Status

Höhe 485.4 km
Geschwindigkeit 7.62 km/s
Subsatellitenpunkt -17.02°S, 135.2°E
Startdatum 13. März 2025
Alter 0.7 years
Typ internet

Technische Details

Klassifizierung Payload
Masse 730.00 kg
Trockenmasse 700.00 kg
Gesamtmasse 730.00 kg
Länge 0.30 m
Durchmesser 4.10 m
Spannweite 29.00 m
Form Box + pan
Hersteller SPXS
Bus-Typ Starlink V2M
Phasenstatus In Orbit
Besitzer/Staat SPXS/US

Große Konstellationen

Loading constellations...